Simultaneous Nadir Overpasses (SNOs) Predictions

Prediction of SNOs between NOAA-19 and NPP Satellite Orbit:

Table of predicted SNOs for the next 14.0 days since TLE Epoch: 12/6/2013
Index Date (NOAA-19) Time (NOAA-19) Lat,Lon (NOAA-19) SZA (NOAA-19 ) Date (NPP) Time (NPP) Lat,Lon (NPP) SZA (NPP ) Distance(km) Time Diff (sec)
1 12/06/2013 21:06:40 -80.98, -10.32 73.24 12/06/2013 21:07:45 -80.98, -10.34 73.27 0.33 65
2 12/06/2013 21:57:39 80.97, 156.98 106.77 12/06/2013 21:58:30 80.97, 157.09 106.73 1.90 51
3 12/06/2013 22:48:43 -80.96, -35.41 73.29 12/06/2013 22:49:14 -80.96, -35.34 73.31 1.26 31
4 12/06/2013 23:39:40 80.95, 132.27 106.67 12/06/2013 23:39:58 80.96, 132.09 106.68 3.16 18
5 12/07/2013 00:30:45 -80.95, -60.50 73.34 12/07/2013 00:30:42 -80.95, -60.34 73.36 2.84 3
6 12/07/2013 01:21:43 80.94, 107.18 106.61 12/07/2013 01:21:27 80.94, 107.09 106.63 1.64 16
7 12/07/2013 02:12:47 -80.93, -85.22 73.44 12/07/2013 02:12:11 -80.93, -85.34 73.40 2.15 36
8 12/07/2013 03:03:46 80.92, 82.10 106.56 12/07/2013 03:02:56 80.92, 82.09 106.59 0.13 50
9 12/07/2013 03:54:50 -80.91,-110.31 73.49 12/07/2013 03:53:40 -80.91,-110.34 73.45 0.56 70
10 12/19/2013 12:45:54 80.98, -65.14 107.78 12/19/2013 12:46:58 80.98, -65.10 107.74 0.86 64
11 12/19/2013 13:36:56 -80.98, 102.11 72.23 12/19/2013 13:37:43 -80.98, 102.15 72.26 0.75 47
12 12/19/2013 14:27:58 80.98, -90.60 107.77 12/19/2013 14:28:28 80.98, -90.46 107.74 2.43 30
13 12/19/2013 15:18:59 -80.97, 77.01
